﻿測定場所 (Monitoring sites),日付 (Measurement date),時間 (Measurement time),線量率 最大値 (max) μGy/h,線量率 最小値 (min) μGy/h,線量率 平均値 (average) μGy/h,
江戸川 (Edogawa),2014-09-21,23:01～24:00,0.0765,0.0690,0.0723,
江戸川 (Edogawa),2014-09-21,22:01～23:00,0.0752,0.0695,0.0724,
江戸川 (Edogawa),2014-09-21,21:01～22:00,0.0747,0.0685,0.0722,
江戸川 (Edogawa),2014-09-21,20:01～21:00,0.0795,0.0691,0.0722,
江戸川 (Edogawa),2014-09-21,19:01～20:00,0.0789,0.0699,0.0730,
江戸川 (Edogawa),2014-09-21,18:01～19:00,0.0771,0.0692,0.0724,
江戸川 (Edogawa),2014-09-21,17:01～18:00,0.0751,0.0694,0.0722,
江戸川 (Edogawa),2014-09-21,16:01～17:00,0.0750,0.0680,0.0720,
江戸川 (Edogawa),2014-09-21,15:01～16:00,0.0755,0.0697,0.0721,
江戸川 (Edogawa),2014-09-21,14:01～15:00,0.0749,0.0689,0.0722,
江戸川 (Edogawa),2014-09-21,13:01～14:00,0.0758,0.0688,0.0720,
江戸川 (Edogawa),2014-09-21,12:01～13:00,0.0771,0.0695,0.0720,
江戸川 (Edogawa),2014-09-21,11:01～12:00,0.0760,0.0693,0.0728,
江戸川 (Edogawa),2014-09-21,10:01～11:00,0.0762,0.0700,0.0732,
江戸川 (Edogawa),2014-09-21,09:01～10:00,0.0777,0.0686,0.0733,
江戸川 (Edogawa),2014-09-21,08:01～09:00,0.0774,0.0703,0.0733,
江戸川 (Edogawa),2014-09-21,07:01～08:00,0.0802,0.0676,0.0730,
江戸川 (Edogawa),2014-09-21,06:01～07:00,0.0805,0.0695,0.0723,
江戸川 (Edogawa),2014-09-21,05:01～06:00,0.0764,0.0692,0.0727,
江戸川 (Edogawa),2014-09-21,04:01～05:00,0.0778,0.0686,0.0726,
江戸川 (Edogawa),2014-09-21,03:01～04:00,0.0781,0.0683,0.0727,
江戸川 (Edogawa),2014-09-21,02:01～03:00,0.0767,0.0693,0.0726,
江戸川 (Edogawa),2014-09-21,01:01～02:00,0.0764,0.0696,0.0725,
江戸川 (Edogawa),2014-09-21,00:01～01:00,0.0780,0.0669,0.0722,
江戸川 (Edogawa),2014-09-20,23:01～24:00,0.0786,0.0678,0.0726,
江戸川 (Edogawa),2014-09-20,22:01～23:00,0.0761,0.0692,0.0719,
江戸川 (Edogawa),2014-09-20,21:01～22:00,0.0745,0.0689,0.0719,
江戸川 (Edogawa),2014-09-20,20:01～21:00,0.0763,0.0693,0.0724,
江戸川 (Edogawa),2014-09-20,19:01～20:00,0.0758,0.0691,0.0723,
江戸川 (Edogawa),2014-09-20,18:01～19:00,0.0747,0.0690,0.0725,
江戸川 (Edogawa),2014-09-20,17:01～18:00,0.0802,0.0716,0.0747,
江戸川 (Edogawa),2014-09-20,16:01～17:00,0.0826,0.0708,0.0752,
江戸川 (Edogawa),2014-09-20,15:01～16:00,0.0775,0.0690,0.0727,
江戸川 (Edogawa),2014-09-20,14:01～15:00,0.0775,0.0694,0.0728,
江戸川 (Edogawa),2014-09-20,13:01～14:00,0.0768,0.0698,0.0728,
江戸川 (Edogawa),2014-09-20,12:01～13:00,0.0759,0.0679,0.0725,
江戸川 (Edogawa),2014-09-20,11:01～12:00,0.0766,0.0690,0.0725,
江戸川 (Edogawa),2014-09-20,10:01～11:00,0.0790,0.0684,0.0732,
江戸川 (Edogawa),2014-09-20,09:01～10:00,0.0814,0.0688,0.0738,
江戸川 (Edogawa),2014-09-20,08:01～09:00,0.0814,0.0709,0.0746,
江戸川 (Edogawa),2014-09-20,07:01～08:00,0.0800,0.0717,0.0752,
江戸川 (Edogawa),2014-09-20,06:01～07:00,0.0764,0.0706,0.0736,
江戸川 (Edogawa),2014-09-20,05:01～06:00,0.0779,0.0692,0.0734,
江戸川 (Edogawa),2014-09-20,04:01～05:00,0.0789,0.0709,0.0737,
江戸川 (Edogawa),2014-09-20,03:01～04:00,0.0795,0.0694,0.0735,
江戸川 (Edogawa),2014-09-20,02:01～03:00,0.0781,0.0700,0.0736,
江戸川 (Edogawa),2014-09-20,01:01～02:00,0.0778,0.0689,0.0729,
江戸川 (Edogawa),2014-09-20,00:01～01:00,0.0793,0.0693,0.0729,
江戸川 (Edogawa),2014-09-19,23:01～24:00,0.0780,0.0698,0.0729,
江戸川 (Edogawa),2014-09-19,22:01～23:00,0.0757,0.0687,0.0725,
江戸川 (Edogawa),2014-09-19,21:01～22:00,0.0795,0.0688,0.0726,
江戸川 (Edogawa),2014-09-19,20:01～21:00,0.0784,0.0674,0.0724,
江戸川 (Edogawa),2014-09-19,19:01～20:00,0.0772,0.0695,0.0726,
江戸川 (Edogawa),2014-09-19,18:01～19:00,0.0749,0.0660,0.0724,
江戸川 (Edogawa),2014-09-19,17:01～18:00,0.0775,0.0677,0.0725,
江戸川 (Edogawa),2014-09-19,16:01～17:00,0.0786,0.0686,0.0725,
江戸川 (Edogawa),2014-09-19,15:01～16:00,0.0765,0.0679,0.0724,
江戸川 (Edogawa),2014-09-19,14:01～15:00,0.0759,0.0672,0.0724,
江戸川 (Edogawa),2014-09-19,13:01～14:00,0.0754,0.0682,0.0725,
江戸川 (Edogawa),2014-09-19,12:01～13:00,0.0773,0.0694,0.0727,
江戸川 (Edogawa),2014-09-19,11:01～12:00,0.0765,0.0695,0.0722,
江戸川 (Edogawa),2014-09-19,10:01～11:00,0.0776,0.0679,0.0725,
江戸川 (Edogawa),2014-09-19,09:01～10:00,0.0776,0.0691,0.0733,
江戸川 (Edogawa),2014-09-19,08:01～09:00,0.0781,0.0689,0.0725,
江戸川 (Edogawa),2014-09-19,07:01～08:00,0.0766,0.0669,0.0727,
江戸川 (Edogawa),2014-09-19,06:01～07:00,0.0763,0.0687,0.0725,
江戸川 (Edogawa),2014-09-19,05:01～06:00,0.0788,0.0679,0.0727,
江戸川 (Edogawa),2014-09-19,04:01～05:00,0.0780,0.0689,0.0726,
江戸川 (Edogawa),2014-09-19,03:01～04:00,0.0792,0.0682,0.0723,
江戸川 (Edogawa),2014-09-19,02:01～03:00,0.0767,0.0694,0.0723,
江戸川 (Edogawa),2014-09-19,01:01～02:00,0.0776,0.0681,0.0723,
江戸川 (Edogawa),2014-09-19,00:01～01:00,0.0777,0.0687,0.0721,
江戸川 (Edogawa),2014-09-18,23:01～24:00,0.0784,0.0697,0.0727,
江戸川 (Edogawa),2014-09-18,22:01～23:00,0.0769,0.0692,0.0728,
江戸川 (Edogawa),2014-09-18,21:01～22:00,0.0769,0.0677,0.0724,
江戸川 (Edogawa),2014-09-18,20:01～21:00,0.0775,0.0691,0.0722,
江戸川 (Edogawa),2014-09-18,19:01～20:00,0.0762,0.0690,0.0721,
江戸川 (Edogawa),2014-09-18,18:01～19:00,0.0768,0.0679,0.0723,
江戸川 (Edogawa),2014-09-18,17:01～18:00,0.0760,0.0675,0.0724,
江戸川 (Edogawa),2014-09-18,16:01～17:00,0.0774,0.0693,0.0723,
江戸川 (Edogawa),2014-09-18,15:01～16:00,0.0768,0.0697,0.0723,
江戸川 (Edogawa),2014-09-18,14:01～15:00,0.0762,0.0693,0.0723,
江戸川 (Edogawa),2014-09-18,13:01～14:00,0.0766,0.0692,0.0726,
江戸川 (Edogawa),2014-09-18,12:01～13:00,0.0766,0.0659,0.0723,
江戸川 (Edogawa),2014-09-18,11:01～12:00,0.0792,0.0685,0.0723,
江戸川 (Edogawa),2014-09-18,10:01～11:00,0.0751,0.0680,0.0716,
江戸川 (Edogawa),2014-09-18,09:01～10:00,0.0753,0.0677,0.0721,
江戸川 (Edogawa),2014-09-18,08:01～09:00,0.0750,0.0676,0.0718,
江戸川 (Edogawa),2014-09-18,07:01～08:00,0.0754,0.0683,0.0723,
江戸川 (Edogawa),2014-09-18,06:01～07:00,0.0747,0.0693,0.0724,
江戸川 (Edogawa),2014-09-18,05:01～06:00,0.0771,0.0684,0.0725,
江戸川 (Edogawa),2014-09-18,04:01～05:00,0.0788,0.0693,0.0724,
江戸川 (Edogawa),2014-09-18,03:01～04:00,0.0775,0.0691,0.0724,
江戸川 (Edogawa),2014-09-18,02:01～03:00,0.0781,0.0702,0.0725,
江戸川 (Edogawa),2014-09-18,01:01～02:00,0.0778,0.0680,0.0722,
江戸川 (Edogawa),2014-09-18,00:01～01:00,0.0750,0.0680,0.0716,
江戸川 (Edogawa),2014-09-17,23:01～24:00,0.0761,0.0686,0.0721,
江戸川 (Edogawa),2014-09-17,22:01～23:00,0.0791,0.0695,0.0724,
江戸川 (Edogawa),2014-09-17,21:01～22:00,0.0764,0.0694,0.0723,
江戸川 (Edogawa),2014-09-17,20:01～21:00,0.0749,0.0690,0.0719,
江戸川 (Edogawa),2014-09-17,19:01～20:00,0.0770,0.0683,0.0721,
江戸川 (Edogawa),2014-09-17,18:01～19:00,0.0752,0.0685,0.0721,
江戸川 (Edogawa),2014-09-17,17:01～18:00,0.0767,0.0687,0.0719,
江戸川 (Edogawa),2014-09-17,16:01～17:00,0.0746,0.0691,0.0719,
江戸川 (Edogawa),2014-09-17,15:01～16:00,0.0761,0.0683,0.0719,
江戸川 (Edogawa),2014-09-17,14:01～15:00,0.0774,0.0689,0.0719,
江戸川 (Edogawa),2014-09-17,13:01～14:00,0.0752,0.0682,0.0718,
江戸川 (Edogawa),2014-09-17,12:01～13:00,0.0773,0.0682,0.0719,
江戸川 (Edogawa),2014-09-17,11:01～12:00,0.0763,0.0680,0.0716,
江戸川 (Edogawa),2014-09-17,10:01～11:00,0.0763,0.0690,0.0716,
江戸川 (Edogawa),2014-09-17,09:01～10:00,0.0756,0.0677,0.0716,
江戸川 (Edogawa),2014-09-17,08:01～09:00,0.0757,0.0665,0.0716,
江戸川 (Edogawa),2014-09-17,07:01～08:00,0.0749,0.0687,0.0714,
江戸川 (Edogawa),2014-09-17,06:01～07:00,0.0775,0.0679,0.0720,
江戸川 (Edogawa),2014-09-17,05:01～06:00,0.0751,0.0678,0.0720,
江戸川 (Edogawa),2014-09-17,04:01～05:00,0.0750,0.0688,0.0717,
江戸川 (Edogawa),2014-09-17,03:01～04:00,0.0743,0.0682,0.0717,
江戸川 (Edogawa),2014-09-17,02:01～03:00,0.0782,0.0674,0.0720,
江戸川 (Edogawa),2014-09-17,01:01～02:00,0.0747,0.0689,0.0716,
江戸川 (Edogawa),2014-09-17,00:01～01:00,0.0767,0.0681,0.0718,
江戸川 (Edogawa),2014-09-16,23:01～24:00,0.0755,0.0684,0.0717,
江戸川 (Edogawa),2014-09-16,22:01～23:00,0.0748,0.0680,0.0713,
江戸川 (Edogawa),2014-09-16,21:01～22:00,0.0740,0.0682,0.0712,
江戸川 (Edogawa),2014-09-16,20:01～21:00,0.0751,0.0687,0.0719,
江戸川 (Edogawa),2014-09-16,19:01～20:00,0.0773,0.0673,0.0714,
江戸川 (Edogawa),2014-09-16,18:01～19:00,0.0749,0.0684,0.0717,
江戸川 (Edogawa),2014-09-16,17:01～18:00,0.0743,0.0679,0.0712,
江戸川 (Edogawa),2014-09-16,16:01～17:00,0.0760,0.0674,0.0712,
江戸川 (Edogawa),2014-09-16,15:01～16:00,0.0747,0.0691,0.0719,
江戸川 (Edogawa),2014-09-16,14:01～15:00,0.0747,0.0681,0.0718,
江戸川 (Edogawa),2014-09-16,13:01～14:00,0.0761,0.0664,0.0721,
江戸川 (Edogawa),2014-09-16,12:01～13:00,0.0759,0.0684,0.0721,
江戸川 (Edogawa),2014-09-16,11:01～12:00,0.0749,0.0675,0.0719,
江戸川 (Edogawa),2014-09-16,10:01～11:00,0.0759,0.0667,0.0713,
江戸川 (Edogawa),2014-09-16,09:01～10:00,0.0760,0.0670,0.0720,
江戸川 (Edogawa),2014-09-16,08:01～09:00,0.0751,0.0682,0.0715,
江戸川 (Edogawa),2014-09-16,07:01～08:00,0.0757,0.0680,0.0718,
江戸川 (Edogawa),2014-09-16,06:01～07:00,0.0753,0.0683,0.0714,
江戸川 (Edogawa),2014-09-16,05:01～06:00,0.0747,0.0682,0.0716,
江戸川 (Edogawa),2014-09-16,04:01～05:00,0.0746,0.0681,0.0714,
江戸川 (Edogawa),2014-09-16,03:01～04:00,0.0750,0.0677,0.0718,
江戸川 (Edogawa),2014-09-16,02:01～03:00,0.0770,0.0680,0.0715,
江戸川 (Edogawa),2014-09-16,01:01～02:00,0.0741,0.0682,0.0716,
江戸川 (Edogawa),2014-09-16,00:01～01:00,0.0756,0.0674,0.0712,
江戸川 (Edogawa),2014-09-15,23:01～24:00,0.0742,0.0675,0.0711,
江戸川 (Edogawa),2014-09-15,22:01～23:00,0.0751,0.0670,0.0714,
江戸川 (Edogawa),2014-09-15,21:01～22:00,0.0739,0.0670,0.0709,
江戸川 (Edogawa),2014-09-15,20:01～21:00,0.0743,0.0676,0.0712,
江戸川 (Edogawa),2014-09-15,19:01～20:00,0.0744,0.0690,0.0714,
江戸川 (Edogawa),2014-09-15,18:01～19:00,0.0746,0.0677,0.0709,
江戸川 (Edogawa),2014-09-15,17:01～18:00,0.0756,0.0681,0.0710,
江戸川 (Edogawa),2014-09-15,16:01～17:00,0.0755,0.0665,0.0709,
江戸川 (Edogawa),2014-09-15,15:01～16:00,0.0760,0.0680,0.0712,
江戸川 (Edogawa),2014-09-15,14:01～15:00,0.0749,0.0678,0.0709,
江戸川 (Edogawa),2014-09-15,13:01～14:00,0.0754,0.0665,0.0711,
江戸川 (Edogawa),2014-09-15,12:01～13:00,0.0749,0.0679,0.0709,
江戸川 (Edogawa),2014-09-15,11:01～12:00,0.0741,0.0664,0.0708,
江戸川 (Edogawa),2014-09-15,10:01～11:00,0.0766,0.0676,0.0713,
江戸川 (Edogawa),2014-09-15,09:01～10:00,0.0764,0.0676,0.0710,
江戸川 (Edogawa),2014-09-15,08:01～09:00,0.0742,0.0681,0.0711,
江戸川 (Edogawa),2014-09-15,07:01～08:00,0.0744,0.0671,0.0714,
江戸川 (Edogawa),2014-09-15,06:01～07:00,0.0769,0.0653,0.0710,
江戸川 (Edogawa),2014-09-15,05:01～06:00,0.0744,0.0679,0.0712,
江戸川 (Edogawa),2014-09-15,04:01～05:00,0.0741,0.0679,0.0711,
江戸川 (Edogawa),2014-09-15,03:01～04:00,0.0771,0.0671,0.0707,
江戸川 (Edogawa),2014-09-15,02:01～03:00,0.0742,0.0666,0.0713,
江戸川 (Edogawa),2014-09-15,01:01～02:00,0.0740,0.0673,0.0711,
江戸川 (Edogawa),2014-09-15,00:01～01:00,0.0739,0.0666,0.0709,
